Printer-friendly version

IAU Minor Planet Center

Minor Planet Center

MPEC 2010-J13 : 2010 HD33

The following Minor Planet Electronic Circular may be linked-to from your own Web pages, but must not otherwise be redistributed electronically.

A form allowing access to any MPEC is at the bottom of this page.


Read MPEC 2010-J12 Read MPEC 2010-J14


M.P.E.C. 2010-J13                                Issued 2010 May 4, 11:42 UT

     The Minor Planet Electronic Circulars contain information on unusual
         minor planets and routine data on comets.  They are published
   on behalf of Commission 20 of the International Astronomical Union by the
          Minor Planet Center, Smithsonian Astrophysical Observatory,
                          Cambridge, MA 02138, U.S.A.

             Prepared using the Tamkin Foundation Computer Network

                              MPC@CFA.HARVARD.EDU
       URL http://www.minorplanetcenter.org/iau/mpc.html  ISSN 1523-6714

                                   2010 HD33

Observations:
     K10H33D* S2010 04 20.27158 08 42 02.69 +24 16 54.0          22   R EJ013C51
     K10H33D  s2010 04 20.27158 1 - 2246.4638 + 5706.6390 + 3170.0558   EJ013C51
     K10H33D  S2010 04 20.53619 08 42 34.99 +24 22 24.5                 EJ013C51
     K10H33D  s2010 04 20.53619 1 - 2277.1348 + 5702.1783 + 3156.9220   EJ013C51
     K10H33D  S2010 04 20.80079 08 43 07.39 +24 27 48.9                 EJ013C51
     K10H33D  s2010 04 20.80079 1 - 2307.4553 + 5696.9822 + 3144.0299   EJ013C51
     K10H33D  S2010 04 20.93323 08 43 23.68 +24 30 30.7                 EJ013C51
     K10H33D  s2010 04 20.93323 1 - 2296.5767 + 5663.4995 + 3211.6845   EJ013C51
     K10H33D  S2010 04 21.13162 08 43 48.16 +24 34 32.7                 EJ013C51
     K10H33D  s2010 04 21.13162 1 - 2332.7333 + 5674.9933 + 3164.3745   EJ013C51
     K10H33D  C2010 05 03.14163 09 11 53.18 +28 05 35.6          20.8 V EJ013691
     K10H33D  C2010 05 03.15759 09 11 55.51 +28 05 48.9          20.7 V EJ013691
     K10H33D  C2010 05 03.17354 09 11 57.98 +28 06 03.5          20.7 V EJ013691
     K10H33D  C2010 05 04.09758 09 14 23.18 +28 19 27.8          19.4 V EJ013H26
     K10H33D  C2010 05 04.09994 09 14 23.51 +28 19 29.8          19.7 V EJ013H26
     K10H33D  C2010 05 04.10464 09 14 24.35 +28 19 33.6          19.7 V EJ013H26
     K10H33D  C2010 05 04.10848909 14 24.84 +28 19 38.5          19.6 V EJ013H21
     K10H33D  C2010 05 04.11448309 14 25.78 +28 19 43.3          19.8 V EJ013H21
     K10H33D  C2010 05 04.12047609 14 26.70 +28 19 48.1          20.0 V EJ013H21
     K10H33D KC2010 05 04.17164 09 14 34.69 +28 20 30.6          20.0 R EJ013H36
     K10H33D KC2010 05 04.17760 09 14 35.65 +28 20 36.0          20.6 R EJ013H36
     K10H33D KC2010 05 04.18553 09 14 36.89 +28 20 42.6          20.2 R EJ013H36
     K10H33D  C2010 05 04.24111 09 14 45.60 +28 21 30.6          20.6 V EJ013291
     K10H33D  C2010 05 04.24663 09 14 46.45 +28 21 35.2          20.6 V EJ013291
     K10H33D  C2010 05 04.25158 09 14 47.23 +28 21 39.4          20.8 V EJ013291

Observer details:
291 LPL/Spacewatch II.  Observer J. V. Scotti.  1.8-m f/2.7 reflector + CCD.
691 Steward Observatory, Kitt Peak.  Observer J. V. Scotti.  0.9-m f/3
    reflector + CCD.
H21 Astronomical Research Observatory, Westfield.  Observer R. Holmes.
    Measurer S. Foglia.
H26 Doc Greiner Research Observatory, Janesvillle.  Observer M. Mills.  0.4-m
    f/8 Schmidt-Cassegrain + CCD.
H36 Sandlot Observatory, Scranton.  Observer G. Hug.  0.56-m reflector + CCD.
C51 WISE.  Measurers A. Mainzer, E. Wright, J. Bauer, T. Grav, J. Dailey, J.
    Masiero, R. Cutri, R. McMillan, R. Walker.
    (http://wise.ssl.berkeley.edu/mission_sci.html)

Orbital elements:
2010 HD33                                                Earth MOID = 0.3502 AU
Epoch 2010 Apr. 14.0 TT = JDT 2455300.5                 MPC
M 345.68430              (2000.0)            P               Q
n   0.24642769     Peri.   50.83184     -0.78601387     +0.60994581
a   2.5196664      Node   165.77391     -0.61292393     -0.79013999
e   0.5051987      Incl.   24.20017     +0.08066254     -0.06037301
P   4.00           H   18.1           G   0.15
From 20 observations 2010 Apr. 20-May 4.

Ephemeris:
2010 HD33                a,e,i = 2.52, 0.51, 24                  q = 1.2467
Date    TT    R. A. (2000) Decl.     Delta      r     Elong.  Phase     V
2010 05 04    09 14.13   +28 18.1    0.858    1.314    89.1    50.1    20.2
2010 05 14    09 42.36   +30 17.4    0.886    1.284    84.9    51.6    20.3
2010 05 24    10 13.92   +31 26.9    0.913    1.262    81.8    52.6    20.3
2010 06 03    10 47.98   +31 45.5    0.937    1.250    79.5    52.9    20.4
2010 06 13    11 23.68   +31 12.1    0.962    1.247    78.1    52.9    20.4
2010 06 23    12 00.22   +29 47.8    0.986    1.254    77.5    52.3    20.5
2010 07 03    12 36.82   +27 36.1    1.013    1.269    77.4    51.4    20.5
2010 07 13    13 12.91   +24 42.0    1.045    1.294    77.8    50.1    20.6
2010 07 23    13 48.14   +21 13.9    1.083    1.327    78.3    48.6    20.7
2010 08 02    14 22.26   +17 22.4    1.130    1.366    78.9    46.8    20.8
2010 08 12    14 55.21   +13 18.5    1.189    1.412    79.3    44.9    20.9
2010 08 22    15 26.99   +09 14.2    1.260    1.462    79.3    42.8    21.1
2010 09 01    15 57.65   +05 19.9    1.345    1.517    78.8    40.8    21.3
2010 09 11    16 27.26   +01 43.8    1.443    1.574    77.7    38.7    21.4
2010 09 21    16 55.89   -01 28.4    1.553    1.634    76.1    36.6    21.6
2010 10 01    17 23.57   -04 13.5    1.676    1.695    73.8    34.6    21.8
2010 10 11    17 50.37   -06 30.7    1.808    1.758    71.0    32.5    22.0

Timothy B. Spahr             (C) Copyright 2010 MPC           M.P.E.C. 2010-J13

Read MPEC 2010-J12 Read MPEC 2010-J14


MPEC number:

Enter an MPEC number in one of the following forms:

  • 1997-B01 (the full form)
  • J97B01 (the packed version of the full form)
  • B01 (the abbreviated form)

Valid HTML 4.01!